[[{"header":{"parameterUnit":"m.s-1","parameterCategory":1,"la1":30.2991,"la2":30.254,"lo1":-89.0895,"lo2":-89.0444,"dy":0.0017,"dx":0.0017,"nx":28,"ny":28,"refTime":"2024-08-28T09:00:00:Z","depth":0,"parameterNumber":2,"parameterNumberName":"U-component_of_WINDS"},"data":[0,0,0,0,0,0,0,0,0,0,0,0,0,0,0,0,0,0,0,0,0,0,0,0,0,0,0,0,0,0,0,0,0,0,0,0,0,0,0,0,0,0,0,0,0,0,0,0,0,0,0,0,0,0,0,0,0,0,-2.0708,-2.0709,0,-2.0812,-2.0814,-2.0815,-2.0826,-2.0825,-2.0824,-2.0823,-2.0926,-2.093,-2.0933,0,0,0,0,0,0,0,0,0,0,0,0,0,-2.0517,-2.052,-2.0708,-2.0709,-2.0711,-2.0812,-2.0814,-2.0815,-2.0827,-2.0825,-2.0824,-2.0823,-2.0925,-2.0929,-2.0934,0,0,0,0,0,0,0,0,0,0,0,0,0,-2.0608,-2.0521,-2.0708,-2.0729,-2.0732,-2.0812,-2.0814,-2.0815,-2.0827,-2.0825,-2.0824,-2.0822,-2.0924,-2.0929,-2.0934,-2.1,0,0,-2.0951,-2.0954,0,0,0,0,0,0,0,0,-2.0603,-2.0615,-2.0724,-2.0728,-2.0731,-2.0805,-2.0784,-2.0877,-2.0827,-2.0791,-2.0823,-2.0821,-2.0887,-2.0895,-2.0918,-2.1004,-2.1009,-2.0952,-2.0955,-2.0958,-2.0959,0,0,0,0,0,0,0,-2.0596,-2.0611,-2.0749,-2.0726,-2.073,-2.0732,-2.0743,-2.0801,-2.0846,-2.0794,-2.0795,-2.0807,-2.0888,-2.0913,-2.0921,-2.101,-2.0952,-2.0957,-2.096,-2.0962,-2.1156,-2.1158,0,0,0,0,0,0,-2.0587,-2.0605,-2.0746,-2.0752,-2.0662,-2.0737,-2.0749,-2.0783,-2.0845,-2.0854,-2.0808,-2.0807,-2.0904,-2.0914,-2.0924,-2.1004,-2.0958,-2.0963,-2.0966,-2.1154,-2.1156,-2.1158,0,0,0,0,0,0,-2.0583,-2.0599,-2.0742,-2.0679,-2.0698,-2.0742,-2.0779,-2.0785,-2.081,-2.0857,-2.0864,-2.0825,-2.0903,-2.0916,-2.0981,-2.1008,-2.0965,-2.097,-2.1152,-2.1155,-2.1157,-2.1165,0,0,0,0,0,0,-2.0577,-2.0598,-2.0623,-2.068,-2.0701,-2.0798,-2.0781,-2.0789,-2.082,-2.082,-2.0875,-2.0882,-2.0903,-2.0973,-2.0987,-2.1015,-2.0975,-2.115,-2.1153,-2.1156,-2.1163,-2.1168,-2.1173,0,0,0,0,0,-2.057,-2.062,-2.0624,-2.0641,-2.0734,-2.0799,-2.0811,-2.0835,-2.0822,-2.0848,-2.0878,-2.088,-2.1004,-2.0979,-2.0995,-2.1025,-2.1148,-2.1152,-2.1156,-2.1161,-2.1167,-2.1172,0,0,0,0,0,0,-2.0564,-2.0628,-2.0633,-2.0704,-2.0746,-2.0801,-2.0834,-2.0841,-2.0887,-2.0884,-2.0911,-2.0924,-2.0987,-2.1013,-2.0985,-2.1092,-2.1074,-2.1082,-2.1072,-2.1079,-2.1084,-2.1075,-2.0979,0,0,0,0,0,-2.0571,-2.062,-2.0673,-2.073,-2.0751,-2.0789,-2.0818,-2.0834,-2.0878,-2.0895,-2.093,-2.0972,-2.1021,-2.1052,-2.1099,-2.1168,-2.1179,-2.1197,-2.1201,-2.1205,-2.121,-2.1249,-2.1257,-2.1172,-2.1172,-2.1172,0,0,-2.0586,-2.0627,-2.0656,-2.073,-2.0764,-2.0813,-2.0804,-2.0856,-2.0892,-2.0903,-2.0966,-2.0994,-2.1042,-2.1109,-2.1141,-2.1133,-2.1237,-2.121,-2.1213,-2.1216,-2.1254,-2.1262,-2.1269,-2.1174,-2.1174,-2.1174,0,0,-2.0637,-2.0674,-2.0725,-2.0761,-2.0814,-2.0839,-2.0852,-2.0906,-2.0925,-2.099,-2.0999,-2.1042,-2.1125,-2.116,-2.1188,-2.1255,-2.1258,-2.1269,-2.1293,-2.133,-2.1337,-2.1343,-2.1366,-2.1374,-2.1275,-2.1275,-2.1275,0,-2.0648,-2.0723,-2.075,-2.0802,-2.0834,-2.0849,-2.0901,-2.0934,-2.0999,-2.102,-2.1011,-2.1116,-2.115,-2.1225,-2.1242,-2.1265,-2.1279,-2.1262,-2.1334,-2.134,-2.1346,-2.1368,-2.1377,-2.1276,-2.1276,-2.1276,-2.1276,0,-2.0733,-2.0785,-2.082,-2.0884,-2.0921,-2.0972,-2.1007,-2.104,-2.1053,-2.1079,-2.1145,-2.1186,-2.1242,-2.1262,-2.1274,-2.1339,-2.1333,-2.1329,-2.1311,-2.1355,-2.1376,-2.1385,-2.1277,-2.1277,-2.1277,-2.1276,0,0,-2.0781,-2.0862,-2.0874,-2.0903,-2.0964,-2.1004,-2.1057,-2.1113,-2.114,-2.1186,-2.1229,-2.13,-2.1298,-2.133,-2.1347,-2.1379,-2.1429,-2.1372,-2.1373,-2.1379,-2.1502,-2.1503,-2.1512,-2.1433,-2.1434,-2.1436,-2.1497,0,-2.0838,-2.0932,-2.096,-2.1039,-2.1087,-2.1103,-2.1148,-2.119,-2.1216,-2.126,-2.1289,-2.1338,-2.1332,-2.1351,-2.1385,-2.1415,-2.1453,-2.1412,-2.1472,-2.1474,-2.1457,-2.1523,-2.1525,-2.1581,-2.1506,-2.1507,-2.1508,0,-2.0916,-2.0964,-2.1049,-2.1105,-2.1126,-2.1166,-2.122,-2.1262,-2.131,-2.1327,-2.1364,-2.1379,-2.1433,-2.1415,-2.149,-2.1461,-2.1488,-2.1507,-2.151,-2.1514,-2.1492,-2.1528,-2.1599,-2.1607,-2.1522,-2.1521,-2.152,0,-2.0941,-2.1027,-2.1089,-2.1114,-2.118,-2.1209,-2.1237,-2.1284,-2.1316,-2.1364,-2.1385,-2.1437,-2.1466,-2.1506,-2.1534,-2.1518,-2.1606,-2.159,-2.1621,-2.162,-2.1636,-2.1634,-2.1711,-2.1657,-2.1657,-2.1657,-2.1656,0,-2.1,-2.1051,-2.1101,-2.1138,-2.1196,-2.1227,-2.1282,-2.1312,-2.1354,-2.1397,-2.1414,-2.1454,-2.149,-2.1534,-2.1557,-2.1615,-2.1628,-2.1642,-2.1647,-2.164,-2.1638,-2.1656,-2.1652,-2.1659,-2.1658,-2.1658,-2.1658,0,-2.1036,-2.1072,-2.114,-2.1199,-2.1215,-2.1254,-2.1304,-2.134,-2.1369,-2.1423,-2.1438,-2.1481,-2.1535,-2.1567,-2.1635,-2.165,-2.1714,-2.1718,-2.1698,-2.17,-2.1728,-2.1724,-2.1817,-2.183,-2.1769,-2.1769,-2.177,0,-2.107,-2.111,-2.1174,-2.1205,-2.1234,-2.1284,-2.1317,-2.135,-2.1384,-2.1443,-2.1472,-2.1527,-2.1573,-2.1658,-2.1695,-2.1747,-2.1751,-2.178,-2.1759,-2.175,-2.175,-2.1746,-2.175,-2.1783,-2.1783,-2.1784,-2.1784,0,-2.1128,-2.1144,-2.1192,-2.1247,-2.1287,-2.1332,-2.1376,-2.14,-2.144,-2.1478,-2.1534,-2.1569,-2.1639,-2.1693,-2.1749,-2.1778,-2.1787,-2.1791,-2.1801,-2.1792,-2.1778,-2.1785,-2.1706,-2.1788,-2.1788,-2.1787,-2.1787,-2.1787,-2.1163,-2.1199,-2.125,-2.1303,-2.134,-2.1382,-2.1419,-2.1453,-2.1501,-2.1561,-2.1577,-2.1636,-2.1683,-2.1759,-2.179,-2.1835,-2.1831,-2.1845,-2.1848,-2.185,-2.185,-2.1773,-2.1846,-2.1846,-2.1846,-2.1846,-2.1845,0,-2.122,-2.1254,-2.1303,-2.1365,-2.1407,-2.1415,-2.1465,-2.1499,-2.155,-2.1595,-2.164,-2.1704,-2.1757,-2.18,-2.1854,-2.1882,-2.1888,-2.1895,-2.1892,-2.1899,-2.1852,-2.1837,-2.189,-2.189,-2.189,-2.189,-2.189,-2.189,-2.1254,-2.1315,-2.1338,-2.1417,-2.1451,-2.1509,-2.1537,-2.1575,-2.1611,-2.1682,-2.1727,-2.1755,-2.1798,-2.1856,-2.1905,-2.1916,-2.1935,-2.1941,-2.1952,-2.1907,-2.1902,-2.1897,-2.1884,-2.1945,-2.1945,-2.1995,-2.1996,-2.1996]},{"header":{"parameterUnit":"m.s-1","parameterCategory":1,"la1":30.2991,"la2":30.254,"lo1":-89.0895,"lo2":-89.0444,"dy":0.0017,"dx":0.0017,"nx":28,"ny":28,"refTime":"2024-08-28T09:00:00:Z","depth":0,"parameterNumber":3,"parameterNumberName":"V-component_of_WINDS"},"data":[0,0,0,0,0,0,0,0,0,0,0,0,0,0,0,0,0,0,0,0,0,0,0,0,0,0,0,0,0,0,0,0,0,0,0,0,0,0,0,0,0,0,0,0,0,0,0,0,0,0,0,0,0,0,0,0,0,0,0.3243,0.3244,0,0.3277,0.3277,0.3278,0.3307,0.3307,0.3307,0.3308,0.3341,0.3341,0.3342,0,0,0,0,0,0,0,0,0,0,0,0,0,0.3203,0.3204,0.3243,0.3244,0.3244,0.3277,0.3277,0.3278,0.3307,0.3307,0.3307,0.3308,0.334,0.3341,0.3342,0,0,0,0,0,0,0,0,0,0,0,0,0,0.3227,0.3204,0.3243,0.3263,0.3265,0.3277,0.3277,0.3278,0.3307,0.3307,0.3308,0.3308,0.334,0.3341,0.3342,0.3337,0,0,0.3345,0.3345,0,0,0,0,0,0,0,0,0.3225,0.3228,0.3259,0.3261,0.3264,0.3288,0.3275,0.3298,0.3306,0.3291,0.3308,0.3308,0.3323,0.3325,0.333,0.3339,0.334,0.3345,0.3345,0.3345,0.3346,0,0,0,0,0,0,0,0.3224,0.3227,0.3257,0.326,0.3262,0.3269,0.3273,0.328,0.3303,0.3292,0.3294,0.3298,0.3324,0.3329,0.3331,0.3341,0.3345,0.3345,0.3346,0.3346,0.3347,0.3347,0,0,0,0,0,0,0.3219,0.3225,0.3256,0.3258,0.3245,0.3269,0.3274,0.328,0.3303,0.3308,0.3297,0.3299,0.3328,0.333,0.3332,0.3328,0.3345,0.3346,0.3347,0.3348,0.3347,0.3346,0,0,0,0,0,0,0.3218,0.3222,0.3254,0.3242,0.3247,0.327,0.3276,0.328,0.3286,0.3308,0.3312,0.3299,0.3328,0.3331,0.3336,0.333,0.3347,0.3347,0.3348,0.3347,0.3347,0.332,0,0,0,0,0,0,0.3217,0.3221,0.322,0.3242,0.3247,0.3257,0.3276,0.328,0.3287,0.329,0.331,0.3314,0.3329,0.3334,0.3337,0.3331,0.3348,0.3349,0.3348,0.3347,0.3321,0.3318,0.3316,0,0,0,0,0,0.3216,0.3211,0.322,0.3223,0.3246,0.3257,0.326,0.3278,0.3287,0.3285,0.3299,0.3313,0.333,0.3335,0.3338,0.3332,0.3349,0.3348,0.3347,0.3323,0.3319,0.3316,0,0,0,0,0,0,0.3187,0.3214,0.3224,0.3227,0.3239,0.3262,0.3261,0.3273,0.3284,0.3285,0.3307,0.3311,0.3313,0.3324,0.3328,0.3329,0.3342,0.3341,0.3322,0.3319,0.3316,0.3313,0.3349,0,0,0,0,0,0.3181,0.3188,0.3211,0.3211,0.3217,0.3237,0.3243,0.3256,0.327,0.3275,0.3289,0.3302,0.331,0.3315,0.3324,0.3323,0.3328,0.3321,0.3318,0.3316,0.3315,0.3315,0.3312,0.3343,0.3343,0.3343,0,0,0.3169,0.3184,0.3187,0.3205,0.3217,0.3223,0.3242,0.3247,0.3252,0.3276,0.3281,0.3292,0.3307,0.3309,0.3311,0.3318,0.3307,0.3314,0.3312,0.3312,0.3313,0.331,0.3307,0.3342,0.3342,0.3342,0,0,0.3149,0.3162,0.3163,0.3174,0.3191,0.3205,0.3205,0.3226,0.3234,0.324,0.3258,0.3264,0.3278,0.3288,0.3295,0.3279,0.3292,0.3282,0.3266,0.3266,0.3263,0.3261,0.3255,0.3253,0.3281,0.3281,0.3281,0,0.3131,0.3141,0.3161,0.3166,0.3173,0.3196,0.3197,0.3206,0.3225,0.323,0.3237,0.3255,0.3267,0.3272,0.3268,0.3273,0.3274,0.3279,0.3262,0.326,0.3259,0.3253,0.3251,0.3279,0.3279,0.328,0.328,0,0.3118,0.3125,0.3124,0.3142,0.3149,0.3152,0.3172,0.3177,0.3189,0.3202,0.3208,0.3223,0.3235,0.3238,0.325,0.3244,0.3247,0.3258,0.3271,0.3254,0.3249,0.3247,0.3277,0.3278,0.3278,0.3278,0,0,0.308,0.311,0.3109,0.3118,0.3138,0.3144,0.3148,0.316,0.3163,0.3176,0.3179,0.3191,0.3201,0.3209,0.3223,0.3222,0.3208,0.3234,0.3234,0.3228,0.3202,0.3193,0.319,0.3217,0.3217,0.3217,0.32,0,0.3063,0.3071,0.309,0.3092,0.3098,0.312,0.3123,0.3136,0.3148,0.3155,0.3169,0.3176,0.319,0.3195,0.3196,0.321,0.3203,0.3211,0.322,0.322,0.3214,0.3187,0.3178,0.3161,0.3199,0.3198,0.3198,0,0.3044,0.3056,0.3058,0.3079,0.3082,0.3085,0.3097,0.3104,0.3119,0.3128,0.3137,0.3152,0.3157,0.317,0.3176,0.3181,0.3186,0.3193,0.3193,0.3194,0.3207,0.3186,0.3157,0.3154,0.3195,0.3196,0.3196,0,0.3016,0.3032,0.3035,0.3042,0.3066,0.3067,0.3077,0.3093,0.3099,0.311,0.3114,0.3126,0.3132,0.314,0.3158,0.3166,0.3162,0.3177,0.3169,0.3169,0.3167,0.3166,0.3136,0.3171,0.3171,0.3171,0.3171,0,0.2994,0.2995,0.3023,0.3025,0.3026,0.3047,0.3048,0.306,0.3074,0.3078,0.3098,0.3102,0.3125,0.3132,0.3146,0.3148,0.3151,0.3158,0.3161,0.3156,0.3155,0.3158,0.3159,0.3171,0.3171,0.3171,0.3171,0,0.2961,0.2981,0.2986,0.3008,0.3014,0.3014,0.3033,0.3036,0.305,0.3055,0.3057,0.3079,0.3088,0.3106,0.312,0.3129,0.3128,0.3135,0.3123,0.3125,0.3116,0.3117,0.3087,0.3083,0.3121,0.3121,0.3121,0,0.2946,0.2947,0.297,0.2974,0.2984,0.2991,0.2997,0.3019,0.3025,0.3042,0.3042,0.3053,0.3062,0.3074,0.3091,0.3101,0.3108,0.3097,0.311,0.3104,0.3107,0.3106,0.3106,0.3094,0.3093,0.3093,0.3092,0,0.2916,0.2925,0.2934,0.2946,0.2954,0.2964,0.2976,0.2978,0.3002,0.3008,0.3017,0.3024,0.3039,0.3048,0.3061,0.3071,0.3085,0.3089,0.3087,0.3081,0.3073,0.3076,0.3114,0.3089,0.3089,0.3089,0.309,0.309,0.2891,0.2893,0.2909,0.2918,0.2929,0.2939,0.2943,0.2957,0.2966,0.2979,0.2991,0.2999,0.3014,0.3033,0.3042,0.3048,0.3056,0.3054,0.3053,0.3052,0.3049,0.3073,0.3051,0.3051,0.3051,0.3051,0.3051,0,0.2861,0.2873,0.2881,0.2897,0.2904,0.2918,0.2931,0.2936,0.2943,0.2956,0.2965,0.2975,0.2985,0.3002,0.3013,0.3015,0.3022,0.3017,0.3016,0.3018,0.3043,0.3042,0.3011,0.3011,0.3011,0.3011,0.3011,0.3011,0.2846,0.285,0.2861,0.287,0.2882,0.289,0.2896,0.2906,0.2916,0.2927,0.2935,0.2947,0.2962,0.2974,0.2983,0.2988,0.2991,0.2984,0.2991,0.3013,0.3017,0.302,0.302,0.2985,0.2985,0.2966,0.2966,0.2966]}]]